Wind_Speed
30 31 31 30 29 29 30 31 33 33 33 33 34 34 34 35 35 35 35 36 37 38 39 40 40 40 41 41 41 41 42 42 43 44 44 43 43 44 45 46 47 48 49 51
30 31 31 30 29 29 31 32 33 33 33 33 33 34 34 35 35 35 35 36 37 38 38 39 39 40 39 39 40 41 41 41 41 42 42 42 42 43 44 45 46 47 48 49
31 30 31 30 29 30 31 31 32 32 32 32 32 33 34 34 34 35 36 36 37 38 38 38 38 39 38 38 39 39 40 40 40 41 41 41 41 42 43 44 44 45 46 47
33 32 31 30 29 29 30 30 31 31 31 32 32 33 34 34 34 34 34 35 36 36 37 37 37 37 37 38 38 38 39 39 39 40 41 41 41 41 42 42 42 42 43 44
34 33 32 31 30 30 31 30 30 31 31 32 32 32 31 33 33 33 34 34 35 35 36 36 36 35 36 37 37 37 37 37 38 38 38 39 40 40 41 42 42 43 44 44
34 34 34 32 32 31 31 30 30 30 30 31 31 31 30 31 32 32 33 34 34 35 35 35 35 34 35 35 35 36 36 36 36 36 37 37 39 40 40 41 42 42 43 44
33 33 33 32 32 31 31 31 31 31 31 31 31 31 31 31 31 31 32 32 33 34 34 34 34 33 33 33 33 33 33 34 34 35 35 36 37 38 39 40 42 43 43 43
33 33 32 31 31 31 30 30 30 31 32 31 31 32 31 31 31 32 32 32 32 32 32 32 32 31 31 32 32 31 31 32 34 34 34 35 36 37 38 40 41 41 42 42
32 32 32 31 31 30 30 30 31 32 32 32 32 32 32 32 32 32 32 32 31 31 31 31 31 31 30 30 31 31 30 31 31 32 32 33 34 35 37 38 39 39 40 40
32 31 31 31 30 30 31 31 32 32 32 32 32 32 32 33 33 33 33 33 32 31 31 31 31 31 30 30 30 30 30 29 28 29 30 30 31 33 34 35 36 37 38 39
31 31 31 31 31 30 31 32 33 33 33 33 33 33 33 33 33 33 33 33 32 32 32 32 32 32 31 30 30 30 29 27 26 27 28 29 29 30 32 33 34 35 37 38
30 31 31 31 31 32 33 34 34 34 34 34 34 34 34 34 34 34 34 33 33 32 32 33 33 32 31 30 29 28 28 26 26 26 27 28 28 29 30 31 32 34 36 37
30 31 31 32 33 34 34 34 34 35 35 35 34 34 34 34 34 34 34 33 33 33 32 32 31 31 30 29 28 27 27 26 26 26 27 27 28 29 29 30 31 32 33 34
31 31 32 32 33 34 34 35 35 35 35 35 34 34 34 34 34 34 33 33 32 32 31 30 30 29 28 27 26 26 25 25 25 25 26 27 28 29 29 30 30 31 32 33
30 31 32 32 33 33 34 34 34 34 34 34 34 34 34 34 34 33 33 32 32 31 30 29 28 27 27 26 26 25 25 25 26 26 26 26 27 28 29 29 30 30 31 31
30 31 31 32 33 33 33 33 34 34 34 34 34 34 34 34 34 33 33 32 31 30 29 28 27 27 26 26 26 25 25 26 26 26 27 27 28 29 29 29 29 30 30 31
30 31 32 32 32 33 33 33 33 33 33 33 33 34 34 34 33 33 32 32 31 30 29 27 27 26 25 25 26 26 26 26 26 26 27 28 28 28 28 29 29 29 30 30
32 32 32 33 33 32 33 33 33 33 33 33 33 33 34 33 33 32 32 32 31 30 29 28 27 26 26 26 26 26 26 26 26 26 26 26 26 27 27 28 29 29 30 30
32 32 32 32 32 32 33 33 33 33 33 33 33 33 33 33 33 32 32 31 31 30 29 28 27 27 27 27 26 26 26 27 27 27 27 27 27 27 27 28 28 29 29 30
33 33 32 32 32 32 33 33 33 33 33 33 33 33 33 33 33 32 32 31 31 30 29 28 28 28 28 27 27 27 27 28 28 28 28 28 28 28 28 29 29 29 29 29
32 32 32 32 32 32 32 33 33 33 33 33 33 33 33 33 32 32 31 30 30 29 29 28 28 28 28 28 28 28 28 28 29 29 29 29 29 29 29 29 29 29 29 29
33 33 32 32 32 32 32 32 33 33 33 33 33 33 33 33 32 31 30 30 30 29 29 29 29 29 28 29 29 29 29 29 29 29 29 30 30 30 29 29 30 30 30 30
32 32 32 32 32 32 32 33 33 33 33 33 33 33 33 33 32 31 30 30 30 29 29 29 29 29 29 29 29 29 29 29 29 29 29 29 29 29 29 29 29 30 30 30
32 32 32 32 32 32 33 33 34 34 33 33 33 34 33 33 32 31 30 30 29 29 29 29 28 28 28 28 28 28 28 28 29 29 29 29 29 29 29 29 29 29 29 29
32 32 32 33 33 33 33 34 34 34 33 33 34 33 33 32 31 30 29 29 28 28 28 28 28 27 27 27 27 27 27 27 27 28 28 28 29 28 28 28 28 29 29 29
32 32 33 33 34 34 34 34 34 34 34 34 33 33 32 31 30 29 29 29 28 28 27 27 27 26 27 27 27 26 26 26 26 26 27 27 27 27 28 28 28 28 28 28
32 33 33 33 34 34 34 33 33 34 34 33 33 32 31 30 30 29 29 28 28 27 27 27 26 26 27 27 27 27 27 27 27 26 26 26 27 27 27 27 27 27 26 26
Wind_Direction
303 302 300 300 299 299 299 300 300 298 295 293 292 291 290 290 289 289 288 287 286 283 282 281 279 278 277 276 275 273 270 267 265 263 261 260 259 258 256 256 255 254 254 254
303 301 298 298 297 297 298 299 301 300 298 296 294 294 292 291 290 289 288 288 287 285 284 282 280 279 278 276 275 274 271 267 265 264 261 260 259 259 258 257 257 256 256 255
305 302 298 299 301 298 298 300 301 302 302 298 297 297 296 295 293 292 290 289 288 287 285 284 283 281 278 277 276 275 273 269 267 265 262 260 260 259 258 256 256 256 257 256
304 303 301 303 303 303 302 301 301 301 303 302 301 300 299 298 297 295 293 291 289 288 286 285 285 282 279 278 278 277 274 271 269 267 264 262 260 259 257 256 255 256 256 257
303 302 303 304 305 304 306 306 303 302 303 304 304 304 303 301 299 297 295 293 291 291 289 287 286 284 281 280 279 278 275 273 270 268 265 262 260 258 258 255 255 256 257 258
302 302 304 306 305 304 305 307 308 306 305 305 306 305 305 304 302 300 299 297 294 293 292 290 288 285 283 282 281 279 276 274 271 269 266 263 260 260 260 257 258 259 260 260
302 302 303 305 305 305 305 308 309 309 308 306 306 306 305 304 304 303 302 300 298 296 295 293 291 287 284 283 282 281 279 275 272 270 267 265 263 262 261 260 260 260 261 261
302 302 304 304 302 303 305 307 308 309 308 307 306 305 304 304 303 303 303 302 300 299 297 295 293 290 287 285 283 281 280 279 276 271 269 268 266 264 263 262 262 262 262 262
301 301 301 301 301 301 303 305 306 308 307 307 307 305 304 303 302 302 302 301 300 299 298 296 293 291 289 287 284 281 281 280 277 273 271 270 269 266 265 264 263 263 262 262
299 299 299 300 300 300 301 304 306 307 307 306 306 305 305 304 302 301 300 299 298 298 298 297 295 292 290 288 285 282 282 282 278 275 272 271 270 268 267 266 265 264 263 264
298 298 297 299 301 301 300 301 304 306 305 305 305 305 305 304 303 302 301 300 298 297 296 296 295 293 291 289 287 283 283 281 276 275 273 270 270 269 269 269 268 266 266 266
299 299 299 300 300 300 300 301 303 304 304 304 304 305 304 304 304 303 302 301 300 299 297 296 295 293 291 289 287 283 283 280 277 274 274 272 269 271 270 269 269 270 269 268
300 300 300 301 301 300 301 302 303 303 304 304 304 305 304 304 304 304 303 301 301 300 299 298 296 294 292 290 287 283 281 279 278 276 274 274 271 270 270 270 271 271 270 270
302 302 302 302 302 302 302 303 304 304 304 305 305 306 305 305 304 304 303 302 301 300 300 299 297 295 293 291 287 284 282 280 278 276 275 275 273 272 272 272 273 274 273 273
305 306 305 304 304 304 304 305 305 306 306 306 306 306 306 305 305 304 304 302 301 300 300 299 298 295 293 291 288 283 281 280 279 278 277 276 276 276 275 275 274 275 275 275
306 308 308 307 306 306 306 307 307 307 307 307 308 307 307 306 305 305 304 303 301 300 299 298 298 296 294 291 288 285 282 280 279 279 279 279 278 277 276 275 275 275 276 275
306 307 307 308 308 307 307 307 307 307 307 307 308 308 308 308 307 305 304 303 301 299 298 297 296 296 294 293 290 287 283 282 281 281 280 280 280 279 278 276 277 277 278 278
306 307 307 307 308 308 308 307 307 307 307 307 308 308 308 308 308 306 304 303 300 298 296 295 293 293 293 292 290 287 285 283 283 282 282 280 279 280 280 279 278 279 279 280
306 307 307 307 307 307 307 307 308 308 308 308 308 308 307 307 306 306 304 303 301 298 296 294 293 292 293 292 290 287 285 283 282 283 283 281 281 281 281 281 280 280 280 281
307 308 308 307 307 308 308 309 309 309 309 309 309 308 308 307 306 305 304 302 300 297 295 293 292 292 292 292 291 288 286 284 283 282 282 282 282 281 281 280 280 280 280 281
308 309 308 308 308 308 309 310 310 310 310 309 309 308 308 308 307 306 304 302 300 297 294 292 291 291 290 290 290 289 287 285 284 283 283 283 283 282 282 281 281 280 281 281
308 309 308 308 308 309 310 310 311 311 311 311 310 310 309 309 308 307 305 303 301 298 295 292 291 290 290 289 289 288 287 286 284 284 284 283 283 283 282 282 281 281 281 281
308 308 309 309 309 309 311 312 312 312 312 311 311 311 311 310 309 307 306 304 302 301 297 294 292 291 290 290 289 288 287 286 285 285 284 284 284 284 283 282 282 281 281 281
307 308 309 309 309 310 311 312 312 312 311 311 311 311 312 311 310 308 307 306 304 303 301 298 295 293 293 292 291 290 289 287 286 286 285 284 284 284 283 282 282 282 282 282
308 309 310 310 310 310 310 311 311 311 311 312 312 312 311 311 310 309 308 307 306 305 304 301 298 295 295 295 294 293 291 290 289 288 286 285 285 284 284 284 283 282 282 282
309 310 310 311 311 311 311 311 312 312 312 312 312 312 312 311 310 309 309 308 308 307 306 304 301 298 296 296 295 294 293 293 292 290 288 287 286 286 285 285 284 283 283 283
310 311 311 311 312 312 313 313 313 313 313 313 313 313 312 311 310 309 309 309 309 309 308 307 304 301 299 298 296 295 294 293 292 291 290 289 288 287 286 286 285 285 284 283
Height
5598 5594 5590 5587 5585 5581 5577 5574 5571 5568 5565 5563 5559 5556 5553 5550 5547 5545 5542 5539 5536 5534 5531 5529 5527 5525 5523 5521 5520 5518 5517 5517 5518 5519 5520 5521 5523 5524 5526 5529 5532 5535 5538 5541
5592 5588 5584 5581 5578 5574 5570 5566 5563 5560 5558 5554 5551 5547 5544 5541 5538 5535 5533 5530 5526 5524 5521 5519 5516 5514 5512 5511 5509 5508 5507 5506 5506 5507 5508 5509 5511 5512 5515 5517 5520 5522 5525 5527
5584 5580 5577 5575 5572 5568 5564 5560 5556 5553 5551 5546 5543 5539 5535 5532 5529 5526 5523 5520 5517 5514 5511 5509 5506 5504 5502 5500 5499 5497 5496 5495 5495 5495 5496 5497 5499 5501 5503 5506 5508 5510 5512 5514
5576 5573 5569 5570 5564 5561 5557 5553 5549 5545 5542 5538 5534 5531 5527 5523 5520 5516 5513 5510 5507 5504 5502 5499 5496 5494 5492 5490 5489 5487 5485 5484 5484 5484 5485 5486 5488 5489 5492 5494 5496 5498 5500 5502
5568 5564 5562 5561 5557 5552 5549 5547 5542 5538 5534 5530 5526 5523 5519 5515 5511 5508 5505 5501 5498 5495 5492 5489 5487 5484 5482 5480 5478 5476 5475 5474 5473 5474 5474 5475 5477 5478 5480 5482 5484 5487 5488 5490
5561 5557 5554 5554 5549 5544 5542 5539 5535 5530 5526 5522 5519 5516 5514 5508 5504 5500 5497 5493 5490 5486 5483 5480 5478 5475 5473 5471 5469 5467 5465 5464 5463 5463 5464 5465 5466 5468 5469 5471 5473 5474 5476 5477
5554 5549 5547 5545 5541 5537 5535 5533 5528 5523 5519 5515 5511 5508 5505 5500 5496 5493 5489 5485 5482 5478 5475 5472 5469 5466 5464 5462 5459 5457 5456 5454 5454 5454 5454 5455 5456 5457 5458 5460 5462 5463 5464 5465
5546 5543 5543 5537 5533 5531 5528 5524 5520 5516 5512 5508 5504 5500 5496 5492 5489 5485 5482 5478 5474 5470 5467 5463 5460 5458 5455 5453 5451 5449 5447 5446 5445 5444 5444 5445 5446 5447 5448 5449 5450 5451 5452 5453
5541 5539 5534 5529 5526 5524 5520 5517 5513 5509 5505 5501 5497 5493 5489 5486 5482 5478 5474 5470 5466 5463 5459 5455 5452 5449 5447 5445 5442 5440 5439 5437 5436 5435 5436 5436 5436 5437 5437 5438 5439 5440 5440 5441
5533 5530 5526 5522 5519 5516 5513 5509 5506 5502 5498 5494 5490 5486 5482 5478 5474 5470 5466 5463 5459 5455 5452 5448 5444 5441 5439 5436 5434 5432 5430 5429 5428 5427 5428 5428 5428 5428 5428 5428 5428 5429 5430 5430
5525 5522 5519 5516 5512 5509 5505 5502 5498 5494 5490 5486 5482 5478 5474 5470 5466 5462 5458 5454 5451 5447 5444 5440 5436 5433 5430 5428 5425 5424 5422 5421 5420 5420 5420 5419 5419 5419 5419 5419 5418 5419 5420 5420
5518 5515 5512 5509 5505 5501 5498 5494 5490 5487 5483 5478 5474 5471 5466 5462 5458 5454 5450 5446 5442 5439 5435 5431 5428 5424 5422 5419 5417 5416 5414 5413 5412 5412 5412 5411 5411 5411 5410 5410 5410 5409 5409 5409
5510 5507 5504 5500 5497 5493 5489 5486 5482 5478 5474 5470 5466 5462 5458 5454 5450 5446 5441 5437 5434 5430 5426 5423 5419 5416 5413 5411 5409 5407 5406 5405 5404 5404 5403 5403 5403 5402 5402 5401 5400 5400 5399 5399
5503 5500 5496 5493 5489 5485 5481 5478 5474 5470 5466 5462 5458 5454 5450 5446 5441 5437 5433 5429 5425 5421 5418 5414 5411 5408 5406 5404 5402 5400 5399 5398 5397 5396 5395 5394 5394 5393 5393 5392 5391 5390 5390 5389
5496 5492 5489 5485 5481 5477 5473 5469 5466 5462 5458 5454 5450 5445 5441 5437 5433 5428 5424 5420 5417 5413 5410 5406 5403 5401 5398 5396 5394 5393 5391 5390 5389 5388 5387 5386 5385 5384 5384 5383 5382 5381 5380 5379
5489 5485 5481 5477 5473 5469 5465 5461 5457 5453 5449 5445 5441 5437 5432 5428 5424 5420 5416 5412 5408 5405 5402 5399 5396 5393 5391 5389 5387 5385 5384 5383 5382 5380 5379 5378 5377 5376 5375 5374 5373 5372 5371 5370
5482 5478 5474 5470 5465 5461 5457 5453 5449 5445 5441 5437 5432 5428 5424 5419 5415 5411 5407 5403 5400 5397 5394 5391 5389 5386 5384 5382 5380 5378 5376 5375 5374 5372 5371 5370 5368 5367 5366 5365 5364 5363 5362 5361
5474 5470 5466 5462 5458 5454 5449 5445 5441 5437 5432 5428 5424 5420 5415 5411 5407 5403 5399 5395 5392 5388 5385 5383 5381 5379 5376 5374 5372 5370 5369 5367 5365 5364 5363 5361 5360 5359 5358 5357 5356 5355 5353 5352
5466 5462 5458 5454 5450 5446 5442 5437 5433 5429 5424 5420 5415 5411 5407 5403 5398 5395 5391 5387 5383 5380 5377 5375 5373 5370 5368 5366 5364 5362 5360 5359 5357 5356 5354 5353 5352 5350 5349 5348 5347 5345 5344 5343
5459 5455 5450 5446 5442 5438 5434 5429 5425 5421 5416 5411 5407 5403 5398 5394 5390 5386 5382 5378 5375 5372 5369 5367 5364 5362 5360 5358 5356 5354 5352 5350 5348 5347 5345 5344 5343 5341 5340 5339 5337 5336 5335 5333
5451 5447 5443 5439 5435 5430 5426 5422 5417 5413 5408 5403 5399 5394 5390 5386 5381 5377 5373 5370 5366 5363 5360 5358 5356 5353 5351 5349 5347 5345 5343 5341 5340 5338 5336 5335 5333 5332 5331 5329 5328 5326 5325 5324
5443 5439 5435 5431 5427 5423 5418 5414 5409 5405 5400 5395 5391 5386 5382 5377 5373 5369 5365 5361 5358 5354 5352 5349 5347 5344 5342 5340 5338 5336 5334 5332 5330 5329 5327 5325 5324 5322 5321 5319 5318 5316 5315 5314
5436 5431 5427 5423 5419 5415 5411 5406 5401 5397 5392 5387 5383 5378 5374 5369 5365 5361 5357 5353 5349 5346 5343 5340 5337 5335 5333 5330 5328 5326 5324 5322 5321 5319 5317 5315 5314 5312 5311 5309 5308 5306 5305 5304
5428 5424 5420 5415 5411 5407 5403 5398 5393 5389 5384 5379 5375 5370 5365 5361 5357 5352 5349 5345 5341 5338 5334 5331 5328 5326 5323 5321 5319 5317 5315 5313 5311 5309 5307 5306 5304 5302 5301 5299 5298 5296 5295 5294
5420 5416 5412 5408 5403 5399 5394 5390 5385 5380 5376 5371 5366 5362 5357 5353 5349 5345 5341 5337 5333 5330 5326 5323 5320 5317 5315 5312 5310 5308 5306 5304 5302 5300 5298 5296 5295 5293 5291 5290 5288 5287 5286 5284
5412 5408 5404 5400 5395 5390 5386 5381 5377 5372 5367 5363 5358 5353 5349 5345 5341 5337 5333 5329 5326 5322 5319 5315 5312 5309 5307 5304 5302 5300 5297 5295 5293 5291 5289 5287 5286 5284 5282 5281 5279 5278 5277 5275
5405 5401 5396 5392 5387 5382 5378 5373 5368 5364 5359 5354 5350 5346 5341 5337 5333 5329 5326 5322 5318 5315 5311 5308 5305 5301 5299 5296 5293 5291 5289 5287 5284 5282 5280 5279 5277 5275 5273 5272 5270 5269 5268 5266